This is the latest recevied weather packets stored in our database for station/object S51UL-6. If no packets are shown the sender has not sent any weather packets the latest 10 day(s).
| Time | Temp. | Humidity | Pressure | Rain* | Wind** | Luminosity | Snow |
|---|---|---|---|---|---|---|---|
| 1777551292 | 17.78° C | 28% | 1028.7 hPa | 0 mm | - | - | - |
| 1777550992 | 17.22° C | 28% | 1028.9 hPa | 0 mm | - | - | - |
| 1777549793 | 17.78° C | 26% | 1029 hPa | 0 mm | - | - | - |
| 1777549492 | 17.78° C | 26% | 1029.1 hPa | 0 mm | - | - | - |
| 1777549191 | 17.78° C | 27% | 1029.1 hPa | 0 mm | - | - | - |
| 1777548891 | 18.33° C | 26% | 1029 hPa | 0 mm | - | - | - |
| 1777548593 | 18.33° C | 27% | 1029 hPa | 0 mm | - | - | - |
| 1777548292 | 18.33° C | 27% | 1029 hPa | 0 mm | - | - | - |
| 1777547993 | 18.89° C | 27% | 1029.2 hPa | 0 mm | - | - | - |
| 1777547693 | 18.33° C | 29% | 1029.1 hPa | 0 mm | - | - | - |
| 1777547393 | 17.78° C | 29% | 1029.1 hPa | 0 mm | - | - | - |
| 1777546793 | 17.22° C | 29% | 1029.4 hPa | 0 mm | - | - | - |
| 1777546494 | 16.67° C | 29% | 1029.3 hPa | 0 mm | - | - | - |
| 1777546193 | 16.11° C | 30% | 1029.4 hPa | 0 mm | - | - | - |
| 1777545893 | 16.11° C | 30% | 1029.5 hPa | 0 mm | - | - | - |
| 1777545593 | 15.56° C | 33% | 1029.4 hPa | 0 mm | - | - | - |
| 1777545293 | 15.56° C | 34% | 1029.5 hPa | 0 mm | - | - | - |
| 1777544994 | 15° C | 34% | 1029.5 hPa | 0 mm | - | - | - |
| 1777544693 | 14.44° C | 35% | 1029.5 hPa | 0 mm | - | - | - |
| 1777544093 | 14.44° C | 35% | 1029.8 hPa | 0 mm | - | - | - |
| 1777543494 | 13.89° C | 36% | 1029.7 hPa | 0 mm | - | - | - |
| 1777543194 | 13.89° C | 37% | 1029.8 hPa | 0 mm | - | - | - |
| 1777542594 | 13.89° C | 36% | 1029.7 hPa | 0 mm | - | - | - |
| 1777542293 | 13.89° C | 38% | 1029.9 hPa | 0 mm | - | - | - |
| 1777541994 | 13.33° C | 39% | 1030 hPa | 0 mm | - | - | - |
* Rain latest hour (hover to see other rain measurements)
** Current wind speed in m/s (hover to see current wind gust speed)